Regional Weather Roundup
Issued by NWS

Home | Current Version | Previous Version | Text Only | Print | Product List | Glossary Off
Versions: 1 2 3 4 5 6 7 8 9 10 11 12 13 14 15 16 17 18 19 20 21 22 23 24 25 26 27 28 29 30 31 32 33 34 35 36 37 38 39 40 41 42 43 44 45 46 47 48 49 50

042
ASUS43 KFSD 271102
RWRSD

WEATHER ROUNDUP FOR SOUTH DAKOTA
NATIONAL WEATHER SERVICE SIOUX FALLS SD
600 AM CDT SUN MAY 27 2018

NOTE: "FAIR" INDICATES FEW OR NO CLOUDS BELOW 12,000 FEET WITH NO
SIGNIFICANT WEATHER AND/OR OBSTRUCTIONS TO VISIBILITY.


SDZ001>005-009-010-012>017-271200-
NORTHWEST AND NORTH CENTRAL SOUTH DAKOTA

CITY           SKY/WX    TMP DP  RH WIND       PRES   REMARKS
BUFFALO          N/A     64  51  62 N3        29.78R
FAITH            N/A     65  60  84 NE5       29.72R
MOBRIDGE       CLOUDY    73  57  57 SE15      29.66R
$$

SDZ012>016-024>037-041>051-057-063-072>074-271200-
SOUTHWEST AND SOUTH CENTRAL SOUTH DAKOTA

CITY           SKY/WX    TMP DP  RH WIND       PRES   REMARKS
RAPID CTY ARPT MOCLDY    69  55  60 NW21G28   29.78R
PIERRE         MOCLDY    67  60  78 SE7       29.69R
CUSTER         MOCLDY    63  43  48 N7        29.92R
ELLSWORTH AFB  MOCLDY    71  60  67 N25G36    29.77R
PHILIP         PTCLDY    68  55  63 S3        29.70R
PINE RIDGE     MOCLDY    75  50  41 S23G35    29.73R
SPEARFISH      CLOUDY    66  59  77 NW12G23   29.90R
WINNER         FAIR      73  54  51 SW20G25   29.73S
$$

SDZ004>011-016>023-039-040-271200-
NORTHEAST SOUTH DAKOTA

CITY           SKY/WX    TMP DP  RH WIND       PRES   REMARKS
ABERDEEN       MOCLDY    70  55  59 CALM      29.72R
WATERTOWN      CLOUDY    70  53  54 S7        29.76S
BROOKINGS      CLOUDY    67  52  58 SE10      29.79S
SISSETON         N/A     66  61  84 N15       29.80R
$$

SDZ017-020-022-023-036>040-048>070-271200-
SOUTHEAST SOUTH DAKOTA

CITY           SKY/WX    TMP DP  RH WIND       PRES   REMARKS
SIOUX FALLS    CLOUDY    65  55  70 CALM      29.78S
HURON          MOCLDY    71  56  58 S13       29.72S
CHAMBERLAIN    PTCLDY    73  58  59 S8        29.74R
MITCHELL       MOCLDY    68  58  70 SE9       29.75R
YANKTON        CLEAR     68  57  68 CALM      29.78R
$$

ABBREVIATIONS USED IN REMARKS
   TC - TEMPERATURE IN CELSIUS
  WCI - WIND CHILL INDEX
   HX - HEAT INDEX
  VSB - VISIBILITY





USA.gov is the U.S. government's official web portal to all federal, state and local government web resources and services.